GW7375 Weather Reports


time (UTC)temp
F
wind
direction
speed
knots
gust
knots
rain 1hr
in
rain 24hr
in
rain mn
in
humidity
%
barometer
mb
20260506085542 34 0 0.0 0.0 0.00 0.00 0.00 81 1012.8
20260506085042 34 0 0.0 0.0 0.00 0.00 0.00 81 1012.7
20260506084555 34 0 0.0 0.0 0.00 0.00 0.00 80 1012.7
20260506084043 34 0 0.0 0.0 0.00 0.00 0.00 80 1012.7
20260506083542 34 0 0.0 0.9 0.00 0.00 0.00 80 1012.6
20260506083051 34 0 0.0 0.9 0.00 0.00 0.00 80 1012.6
20260506082542 34 0 0.0 0.9 0.00 0.00 0.00 80 1012.6
20260506082042 35 0 0.0 1.7 0.00 0.00 0.00 79 1012.7
20260506081558 35 0 0.0 1.7 0.00 0.00 0.00 79 1012.7
20260506081042 35 17 0.0 0.9 0.00 0.00 0.00 78 1012.7
20260506080542 35 0 0.0 0.9 0.00 0.00 0.00 78 1012.7
20260506073053 37 0 0.0 0.0 0.00 0.00 0.00 73 1012.6
20260506072542 37 0 0.0 0.0 0.00 0.00 0.00 73 1012.4
20260506072042 38 0 0.0 0.0 0.00 0.00 0.00 73 1012.4
20260506071554 38 0 0.0 0.0 0.00 0.00 0.00 72 1012.3
20260506071041 38 0 0.0 0.0 0.00 0.00 0.00 72 1012.2
20260506070542 38 0 0.0 0.9 0.00 0.00 0.00 71 1012.2
20260506062040 37 0 0.0 0.0 0.00 0.00 0.00 77 1012.1
20260506061555 37 0 0.0 0.0 0.00 0.00 0.00 76 1012.1
20260506061046 37 0 0.0 0.0 0.00 0.00 0.00 76 1012.1
20260506060543 37 0 0.0 0.0 0.00 0.00 0.00 75 1012.1
20260506051043 39 0 0.0 0.0 0.00 0.00 0.00 72 1011.7
20260506050541 39 0 0.0 0.0 0.00 0.00 0.00 72 1011.7
20260506045047 40 0 0.0 0.0 0.00 0.00 0.00 71 1011.6
20260506044613 40 0 0.0 0.0 0.00 0.00 0.00 70 1011.5
20260506044040 40 0 0.0 0.0 0.00 0.00 0.00 70 1011.6
20260506043542 41 0 0.0 0.0 0.00 0.00 0.00 69 1011.6
20260506043047 41 0 0.0 0.0 0.00 0.00 0.00 69 1011.6
20260506042543 41 0 0.0 0.0 0.00 0.00 0.00 68 1011.6
20260506042041 42 0 0.0 0.0 0.00 0.00 0.00 68 1011.6
20260506041549 42 0 0.0 0.0 0.00 0.00 0.00 67 1011.6
20260506041041 42 0 0.0 0.0 0.00 0.00 0.00 66 1011.6
20260506040542 42 0 0.0 0.0 0.00 0.00 0.00 66 1011.5
20260506040049 42 0 0.0 0.9 0.00 0.00 0.00 66 1011.5
20260506035541 43 0 0.0 0.9 0.00 0.00 0.00 65 1011.6
20260506035041 43 0 0.0 0.0 0.00 0.00 0.00 65 1011.5
20260506034549 43 0 0.0 0.0 0.00 0.00 0.00 63 1011.5
20260506034042 44 0 0.0 0.0 0.00 0.00 0.00 63 1011.5
20260506033542 44 0 0.0 0.0 0.00 0.00 0.00 63 1011.4
20260506033053 44 0 0.0 0.0 0.00 0.00 0.00 63 1011.4
20260506032541 44 0 0.0 0.0 0.00 0.00 0.00 62 1011.5
20260506032043 45 0 0.0 0.0 0.00 0.00 0.00 60 1011.5
20260506031552 45 0 0.0 0.0 0.00 0.00 0.00 59 1011.4
20260506031043 45 0 0.0 0.0 0.00 0.00 0.00 57 1011.5
20260506030541 46 0 0.0 0.0 0.00 0.00 0.00 56 1011.4
20260506030048 46 0 0.0 0.0 0.00 0.00 0.00 54 1011.4
20260506025542 46 0 0.0 0.0 0.00 0.00 0.00 54 1011.4
20260506025041 46 0 0.0 0.0 0.00 0.00 0.00 53 1011.4
20260506024555 47 0 0.0 0.0 0.00 0.00 0.00 52 1011.3
20260506024041 47 0 0.0 0.0 0.00 0.00 0.00 51 1011.3
20260506023543 47 0 0.0 0.0 0.00 0.00 0.00 51 1011.2
20260506023059 47 0 0.0 0.0 0.00 0.00 0.00 49 1011.1
20260506022541 47 0 0.0 0.0 0.00 0.00 0.00 48 1011.0
20260506022042 47 0 0.0 0.0 0.00 0.00 0.00 49 1011.0
20260506021600 48 0 0.0 1.7 0.00 0.00 0.00 47 1011.0
20260506021041 48 0 0.0 1.7 0.00 0.00 0.00 47 1010.9
20260506020540 48 0 0.0 1.7 0.00 0.00 0.00 46 1010.8
20260506020049 48 0 0.0 1.7 0.00 0.00 0.00 46 1010.8
20260506015542 48 249 0.0 2.6 0.00 0.00 0.00 45 1010.8
20260506015042 48 259 0.0 2.6 0.00 0.00 0.00 45 1010.7
20260506014547 48 0 0.0 1.7 0.00 0.00 0.00 45 1010.7
20260506014041 49 0 0.0 2.6 0.00 0.00 0.00 44 1010.6
20260506013541 49 0 0.0 4.3 0.00 0.00 0.00 44 1010.6
20260506013051 49 332 0.9 6.1 0.00 0.00 0.00 43 1010.5
20260506012541 49 348 1.7 6.1 0.00 0.00 0.00 43 1010.5
20260506012041 49 296 0.9 8.7 0.00 0.00 0.00 42 1010.5
20260506011545 50 278 1.7 12.2 0.00 0.00 0.00 42 1010.4
20260506011044 50 251 2.6 12.2 0.00 0.00 0.00 41 1010.4
20260506010543 50 360 3.5 12.2 0.00 0.00 0.00 41 1010.4
20260506010107 50 0 1.7 7.0 0.00 0.00 0.00 41 1010.4
20260506005542 50 314 1.7 7.8 0.00 0.00 0.00 41 1010.3
20260506005041 50 275 1.7 7.8 0.00 0.00 0.00 40 1010.3
20260506004552 51 301 1.7 8.7 0.00 0.00 0.00 40 1010.2
20260506004041 51 295 3.5 8.7 0.00 0.00 0.00 40 1010.1
20260506003542 51 315 3.5 7.0 0.00 0.00 0.00 39 1010.1
20260506003050 51 285 2.6 12.2 0.00 0.00 0.00 39 1010.1
20260506002541 51 328 3.5 12.2 0.00 0.00 0.00 39 1010.0
20260506002043 51 319 1.7 8.7 0.00 0.00 0.00 40 1010.0
20260506001548 51 302 2.6 9.6 0.00 0.00 0.00 38 1010.0
20260506001042 51 302 3.5 9.6 0.00 0.00 0.00 38 1009.9
20260506000544 51 242 2.6 9.6 0.00 0.00 0.00 37 1009.9
20260506000057 51 323 2.6 8.7 0.00 0.00 0.00 38 1010.0
20260505235542 51 322 2.6 7.8 0.00 0.00 0.00 38 1009.9
20260505235045 51 317 0.9 7.0 0.00 0.00 0.00 38 1010.0
20260505234604 51 296 3.5 7.0 0.00 0.00 0.00 38 1010.0
20260505234042 51 294 2.6 10.4 0.00 0.00 0.00 38 1009.9
20260505233541 51 300 3.5 10.4 0.00 0.00 0.00 37 1009.9
20260505233053 51 232 5.2 10.4 0.00 0.00 0.00 36 1009.8
20260505232541 51 236 4.3 11.3 0.00 0.00 0.00 38 1009.9
20260505232043 51 244 5.2 11.3 0.00 0.00 0.00 36 1009.9
20260505231550 51 313 2.6 10.4 0.00 0.00 0.00 37 1009.9
20260505231042 52 318 3.5 10.4 0.00 0.00 0.00 36 1009.9
20260505230542 52 323 5.2 13.0 0.00 0.00 0.00 36 1010.0
20260505230046 52 258 2.6 13.0 0.00 0.00 0.00 37 1010.0
20260505225542 52 344 5.2 13.0 0.00 0.00 0.00 36 1010.0
20260505225041 52 287 3.5 8.7 0.00 0.00 0.00 36 1010.0
20260505224549 52 261 4.3 8.7 0.00 0.00 0.00 35 1010.1
20260505224045 51 228 1.7 9.6 0.00 0.00 0.00 36 1010.0
20260505223542 51 348 4.3 9.6 0.00 0.00 0.00 34 1010.1
20260505223051 52 312 2.6 7.8 0.00 0.00 0.00 35 1010.0
20260505222545 52 279 2.6 7.8 0.00 0.00 0.00 35 1009.9
20260505222042 52 341 1.7 8.7 0.00 0.00 0.00 35 1009.9
20260505221548 52 0 1.7 9.6 0.00 0.00 0.00 34 1009.9
20260505221043 52 302 3.5 9.6 0.00 0.00 0.00 34 1009.9
20260505220544 52 240 3.5 9.6 0.00 0.00 0.00 35 1009.8
20260505220050 52 302 1.7 9.6 0.00 0.00 0.00 36 1009.9
20260505215541 52 290 3.5 9.6 0.00 0.00 0.00 35 1009.8
20260505215044 52 329 3.5 12.2 0.00 0.00 0.00 35 1010.0
20260505214604 52 5 3.5 12.2 0.00 0.00 0.00 36 1010.0
20260505214041 52 317 5.2 12.2 0.00 0.00 0.00 34 1010.0
20260505213542 52 294 3.5 11.3 0.00 0.00 0.00 36 1009.9
20260505213056 52 304 4.3 11.3 0.00 0.00 0.00 35 1010.0
20260505212542 52 263 5.2 12.2 0.00 0.00 0.00 35 1010.0
20260505212042 53 238 5.2 13.0 0.00 0.00 0.00 34 1010.0
20260505211553 53 305 5.2 13.0 0.00 0.00 0.00 35 1010.0
20260505211042 53 257 5.2 12.2 0.00 0.00 0.00 35 1009.9
20260505210541 53 5 1.7 15.6 0.00 0.00 0.00 36 1010.0
20260505210057 53 355 5.2 15.6 0.00 0.00 0.00 35 1010.0
20260505205542 53 287 5.2 15.6 0.00 0.00 0.00 35 1010.0
20260505205045 53 285 4.3 11.3 0.00 0.00 0.00 38 1009.9
20260505204557 52 302 5.2 11.3 0.00 0.00 0.00 35 1010.0
20260505204041 52 269 4.3 9.6 0.00 0.00 0.00 35 1010.0
20260505203542 52 325 5.2 11.3 0.00 0.00 0.00 34 1010.0
20260505203053 52 232 2.6 11.3 0.00 0.00 0.00 35 1010.1
20260505202541 52 304 7.0 15.6 0.00 0.00 0.00 33 1010.1
20260505202041 53 15 6.1 16.5 0.00 0.00 0.00 35 1010.1
20260505201554 52 296 7.0 17.4 0.00 0.00 0.00 34 1010.1
20260505201042 52 300 6.1 17.4 0.00 0.00 0.00 33 1010.1
20260505200540 52 213 6.1 17.4 0.00 0.00 0.00 35 1010.3
20260505195541 52 311 5.2 13.9 0.00 0.00 0.00 34 1010.1
20260505195041 53 234 5.2 13.9 0.00 0.00 0.00 34 1010.1
20260505194554 52 237 5.2 13.9 0.00 0.00 0.00 36 1010.1
20260505194042 52 315 5.2 13.9 0.00 0.00 0.00 35 1010.2
20260505193543 52 346 5.2 14.8 0.00 0.00 0.00 35 1010.2
20260505193052 52 355 5.2 14.8 0.00 0.00 0.00 34 1010.2
20260505192538 52 311 7.8 14.8 0.00 0.00 0.00 33 1010.2
20260505192041 52 202 5.2 14.8 0.00 0.00 0.00 34 1010.3
20260505191550 53 304 5.2 14.8 0.00 0.00 0.00 36 1010.2
20260505191040 53 261 4.3 14.8 0.00 0.00 0.00 35 1010.2
20260505190542 53 261 6.1 14.8 0.00 0.00 0.00 33 1010.2
20260505190048 53 355 5.2 14.8 0.00 0.00 0.00 34 1010.3
20260505185541 53 225 5.2 14.8 0.00 0.00 0.00 35 1010.4
20260505185042 53 294 3.5 11.3 0.00 0.00 0.00 35 1010.4
20260505184552 52 333 4.3 12.2 0.00 0.00 0.00 37 1010.3
20260505184042 52 281 4.3 12.2 0.00 0.00 0.00 36 1010.3
20260505183546 51 277 3.5 12.2 0.00 0.00 0.00 37 1010.2
20260505183057 51 255 5.2 13.0 0.00 0.00 0.00 35 1010.2
20260505182541 51 244 5.2 14.8 0.00 0.00 0.00 35 1010.1
20260505182041 51 274 6.1 14.8 0.00 0.00 0.00 36 1010.1
20260505181550 51 355 3.5 13.9 0.00 0.00 0.00 36 1010.0
20260505181045 51 337 4.3 12.2 0.00 0.00 0.00 36 1010.0
20260505180546 51 288 4.3 13.9 0.00 0.00 0.00 37 1010.0
20260505180104 51 240 7.8 13.9 0.00 0.00 0.00 35 1010.0
20260505175542 51 315 6.1 13.9 0.00 0.00 0.00 35 1010.0
20260505175043 52 350 6.1 13.9 0.00 0.00 0.00 35 1010.0
20260505174601 51 288 6.1 13.9 0.00 0.00 0.00 36 1010.1
20260505174042 51 352 5.2 13.9 0.00 0.00 0.00 35 1010.1
20260505173541 51 273 5.2 13.9 0.00 0.00 0.00 36 1010.1
20260505173052 50 258 6.1 13.0 0.00 0.00 0.00 37 1010.2
20260505172541 50 275 6.1 13.9 0.00 0.00 0.00 36 1010.2
20260505172042 50 262 5.2 13.9 0.00 0.00 0.00 35 1010.1
20260505171553 50 348 6.1 13.9 0.00 0.00 0.00 35 1010.2
20260505171043 50 344 5.2 12.2 0.00 0.00 0.00 37 1010.3
20260505170542 50 348 3.5 12.2 0.00 0.00 0.00 36 1010.3
20260505170049 50 296 4.3 11.3 0.00 0.00 0.00 35 1010.3
20260505165541 50 310 5.2 16.5 0.00 0.00 0.00 35 1010.2
20260505165041 50 295 6.1 16.5 0.00 0.00 0.00 35 1010.4
20260505164551 50 282 7.0 13.0 0.00 0.00 0.00 36 1010.4
20260505164043 50 240 7.0 13.9 0.00 0.00 0.00 35 1010.3
20260505163542 50 326 6.1 13.9 0.00 0.00 0.00 35 1010.4
20260505163054 50 247 6.1 19.1 0.00 0.00 0.00 36 1010.4
20260505162539 49 236 7.0 19.1 0.00 0.00 0.00 36 1010.3
20260505162041 49 265 4.3 12.2 0.00 0.00 0.00 37 1010.2
20260505161603 49 187 6.1 12.2 0.00 0.00 0.00 36 1010.3
20260505161042 49 282 4.3 12.2 0.00 0.00 0.00 37 1010.3
20260505160541 48 308 5.2 13.9 0.00 0.00 0.00 38 1010.2
20260505153053 48 316 7.0 14.8 0.00 0.00 0.00 35 1010.1
20260505152542 48 259 5.2 13.0 0.00 0.00 0.00 36 1010.0
20260505152044 47 323 6.1 13.0 0.00 0.00 0.00 37 1010.1
20260505151553 47 352 6.1 13.0 0.00 0.00 0.00 37 1010.0
20260505151042 47 271 6.1 12.2 0.00 0.00 0.00 37 1010.0
20260505150542 47 267 3.5 9.6 0.00 0.00 0.00 39 1010.1
20260505140542 45 21 4.3 11.3 0.00 0.00 0.00 48 1010.0
20260505124550 43 281 5.2 10.4 0.00 0.00 0.00 56 1009.6
20260505124045 43 295 2.6 11.3 0.00 0.00 0.00 57 1009.4
20260505123542 43 224 1.7 11.3 0.00 0.00 0.00 58 1009.4
20260505123100 43 267 3.5 9.6 0.00 0.00 0.00 59 1009.3
20260505122542 42 323 2.6 9.6 0.00 0.00 0.00 61 1009.2
20260505122042 42 274 3.5 9.6 0.00 0.00 0.00 62 1009.1
20260505121557 41 0 1.7 5.2 0.00 0.00 0.00 63 1009.0
20260505121043 41 254 1.7 5.2 0.00 0.00 0.00 64 1008.9
20260505120542 40 271 1.7 6.1 0.00 0.00 0.00 66 1008.8
20260505120052 39 273 0.9 6.1 0.00 0.00 0.00 68 1008.7
20260505115541 39 0 0.0 1.7 0.00 0.00 0.00 69 1008.5
20260505115042 38 0 0.0 1.7 0.00 0.00 0.00 70 1008.3
20260505114549 38 0 0.0 1.7 0.00 0.00 0.00 71 1008.1
20260505114046 38 346 0.0 2.6 0.00 0.00 0.00 71 1008.0
20260505113545 38 0 0.0 2.6 0.00 0.00 0.00 71 1007.9
20260505113056 38 0 0.0 1.7 0.00 0.00 0.00 70 1007.9
20260505112543 38 23 0.0 1.7 0.00 0.00 0.00 69 1007.9
20260505112042 38 22 0.0 2.6 0.00 0.00 0.00 68 1007.8
20260505111550 39 0 0.0 2.6 0.00 0.00 0.00 67 1007.8
20260505111043 39 0 0.9 2.6 0.00 0.00 0.00 66 1007.8
20260505110542 39 0 0.0 0.0 0.00 0.00 0.00 65 1007.7
20260505102042 43 0 0.0 0.0 0.00 0.00 0.00 57 1007.4
20260505101549 43 0 0.0 2.6 0.00 0.00 0.00 57 1007.3
20260505101042 43 0 0.0 2.6 0.00 0.00 0.00 56 1007.3
20260505100542 43 0 0.0 6.1 0.00 0.00 0.00 56 1007.2
20260505100052 43 287 0.9 6.1 0.00 0.00 0.00 56 1007.1
20260505095542 44 275 1.7 6.1 0.00 0.00 0.00 55 1007.1
20260505095041 44 277 1.7 6.1 0.00 0.00 0.00 55 1007.0
20260505094548 44 321 1.7 6.1 0.00 0.00 0.00 55 1006.9
20260505094042 44 0 1.7 8.7 0.00 0.00 0.00 55 1006.8
20260505093542 44 248 1.7 8.7 0.00 0.00 0.00 54 1006.8
20260505093047 44 283 1.7 11.3 0.00 0.00 0.00 53 1006.8
20260505092542 44 306 1.7 11.3 0.00 0.00 0.00 53 1006.7
20260505092043 44 277 2.6 7.0 0.00 0.00 0.00 53 1006.7
20260505091605 45 327 1.7 7.0 0.00 0.00 0.00 53 1006.6
20260505091040 45 309 1.7 8.7 0.00 0.00 0.00 53 1006.7
20260505090541 45 244 3.5 8.7 0.00 0.00 0.00 53 1006.6
20260505090049 45 257 2.6 7.8 0.00 0.00 0.00 53 1006.5